TimeMST,TemperatureF,Dew PointF,Humidity,Sea Level PressureIn,VisibilityMPH,Wind Direction,Wind SpeedMPH,Gust SpeedMPH,PrecipitationIn,Events,Conditions,WindDirDegrees,DateUTC
12:53 AM,28.9,18.0,64,29.79,10.0,North,6.9,-,N/A,,Partly Cloudy,360,2013-01-08 07:53:00
1:53 AM,41.0,19.9,43,29.75,10.0,West,17.3,23.0,N/A,,Clear,280,2013-01-08 08:53:00
2:53 AM,39.9,21.0,47,29.75,10.0,WNW,21.9,28.8,N/A,,Clear,290,2013-01-08 09:53:00
3:53 AM,39.0,21.0,49,29.78,10.0,West,13.8,-,N/A,,Clear,280,2013-01-08 10:53:00
4:53 AM,33.8,19.4,56,29.79,10.0,NNW,8.1,-,N/A,,Clear,330,2013-01-08 11:53:00
5:53 AM,37.9,21.9,53,29.87,10.0,West,13.8,-,N/A,,Clear,270,2013-01-08 12:53:00
6:53 AM,36.0,21.0,55,29.91,10.0,Calm,Calm,-,N/A,,Clear,0,2013-01-08 13:53:00
7:53 AM,30.9,19.9,64,29.94,10.0,West,4.6,-,N/A,,Clear,280,2013-01-08 14:53:00
8:53 AM,39.0,21.9,50,29.94,10.0,West,5.8,-,N/A,,Clear,260,2013-01-08 15:53:00
9:53 AM,45.0,23.0,42,29.94,10.0,West,16.1,-,N/A,,Clear,280,2013-01-08 16:53:00
10:53 AM,48.0,21.9,36,29.93,10.0,WNW,24.2,39.1,N/A,,Clear,290,2013-01-08 17:53:00
11:53 AM,50.0,21.9,33,29.91,10.0,WNW,26.5,36.8,N/A,,Clear,290,2013-01-08 18:53:00
12:53 PM,51.1,21.0,31,29.91,10.0,WNW,21.9,33.4,N/A,,Clear,300,2013-01-08 19:53:00
1:53 PM,51.1,21.0,31,29.91,10.0,West,25.3,35.7,N/A,,Clear,280,2013-01-08 20:53:00
2:53 PM,50.0,21.9,33,29.94,10.0,West,23.0,32.2,N/A,,Clear,270,2013-01-08 21:53:00
3:53 PM,46.9,21.9,37,29.99,10.0,West,25.3,33.4,N/A,,Clear,270,2013-01-08 22:53:00
4:53 PM,44.1,21.9,42,30.05,10.0,West,19.6,26.5,N/A,,Clear,280,2013-01-08 23:53:00
5:53 PM,41.0,23.0,49,30.07,10.0,West,18.4,-,N/A,,Clear,280,2013-01-09 00:53:00
6:53 PM,39.0,23.0,53,30.11,10.0,WNW,16.1,27.6,N/A,,Clear,290,2013-01-09 01:53:00
7:53 PM,35.1,21.9,59,30.17,10.0,NW,9.2,-,N/A,,Clear,310,2013-01-09 02:53:00
8:53 PM,30.0,21.0,69,30.20,10.0,NW,6.9,-,N/A,,Clear,310,2013-01-09 03:53:00
9:53 PM,26.1,18.0,71,30.22,10.0,NNW,3.5,-,N/A,,Clear,330,2013-01-09 04:53:00
10:53 PM,27.0,18.0,69,30.24,10.0,NW,8.1,-,N/A,,Clear,320,2013-01-09 05:53:00
11:53 PM,35.1,21.9,59,30.22,10.0,SW,6.9,-,N/A,,Clear,230,2013-01-09 06:53:00